View from above orbital plane
|
View from above satellite
|
Ground track
|
The orbit data is extracted from the following two-line orbital elements,
1 39026U 12072A 21016.47488589 .00001400 00000-0 50743-4 0 9993
2 39026 97.2352 13.2122 0035574 203.4678 156.4941 15.29453303449793
Epoch (UTC): | 16 January 2021 11:23:50 |
Eccentricity: | 0.0035574 |
inclination: | 97.2352° |
perigee height: | 453 km |
apogee height: | 502 km |
right ascension of ascending node: | 13.2122° |
argument of perigee: | 203.4678° |
revolutions per day: | 15.29453303 |
mean anomaly at epoch: | 156.4941° |
orbit number at epoch: | 44979 |
The dashed part of the orbit path shows where the satellite is in the earth's shadow,
|
|